| time (UTC) | temp F | wind direction | speed MPH | gust MPH | rain 1hr in | rain 24hr in | rain mn in | humidity % | barometer mb |
| 20260904132013 | 92 | 225 | 4.0 | 9.0 | 0.00 | 0.00 | 0.00 | 36 | 16.9 |
| 20260904131013 | 90 | 135 | 2.0 | 7.0 | 0.00 | 0.00 | 0.00 | 37 | 16.9 |
| 20260904130013 | 90 | 112 | 2.0 | 6.0 | 0.00 | 0.00 | 0.00 | 38 | 17.2 |
| 20260904124013 | 89 | 135 | 3.0 | 9.0 | 0.00 | 0.00 | 0.00 | 39 | 17.4 |
| 20260904123013 | 90 | 180 | 2.0 | 6.0 | 0.00 | 0.00 | 0.00 | 38 | 17.5 |
| 20260904122013 | 90 | 157 | 5.0 | 9.0 | 0.00 | 0.00 | 0.00 | 39 | 17.6 |
| 20260904121015 | 88 | 67 | 2.0 | 5.0 | 0.00 | 0.00 | 0.00 | 41 | 17.8 |
| 20260904120013 | 88 | 157 | 3.0 | 8.0 | 0.00 | 0.00 | 0.00 | 41 | 18.0 |
| 20260904115013 | 89 | 247 | 3.0 | 8.0 | 0.00 | 0.00 | 0.00 | 40 | 18.2 |
| 20260904114013 | 89 | 247 | 3.0 | 11.0 | 0.00 | 0.00 | 0.00 | 39 | 18.3 |
| 20260904112013 | 88 | 270 | 3.0 | 9.0 | 0.00 | 0.00 | 0.00 | 40 | 18.4 |
| 20260904111013 | 87 | 202 | 2.0 | 5.0 | 0.00 | 0.00 | 0.00 | 40 | 18.5 |
| 20260904105013 | 86 | 225 | 2.0 | 6.0 | 0.00 | 0.00 | 0.00 | 41 | 18.9 |
| 20260904104013 | 85 | 225 | 1.0 | 6.0 | 0.00 | 0.00 | 0.00 | 43 | 19.0 |
| 20260904103013 | 84 | 225 | 2.0 | 5.0 | 0.00 | 0.00 | 0.00 | 43 | 19.1 |
| 20260904102013 | 84 | 225 | 1.0 | 4.0 | 0.00 | 0.00 | 0.00 | 46 | 19.3 |
| 20260904100013 | 84 | 225 | 2.0 | 6.0 | 0.00 | 0.00 | 0.00 | 45 | 19.6 |
| 20260904094013 | 82 | 247 | 0.0 | 4.0 | 0.00 | 0.00 | 0.00 | 48 | 19.7 |
| 20260904093013 | 81 | 247 | 2.0 | 4.0 | 0.00 | 0.00 | 0.00 | 51 | 19.8 |
| 20260904092013 | 79 | 135 | 1.0 | 4.0 | 0.00 | 0.00 | 0.00 | 53 | 19.8 |
| 20260904091014 | 79 | 180 | 1.0 | 4.0 | 0.00 | 0.00 | 0.00 | 53 | 19.9 |
| 20260904090017 | 78 | 180 | 1.0 | 5.0 | 0.00 | 0.00 | 0.00 | 54 | 19.9 |
| 20260904085013 | 78 | 157 | 1.0 | 4.0 | 0.00 | 0.00 | 0.00 | 57 | 19.9 |
| 20260904083013 | 76 | 180 | 1.0 | 6.0 | 0.00 | 0.00 | 0.00 | 60 | 19.8 |
| 20260904082013 | 74 | 180 | 2.0 | 5.0 | 0.00 | 0.00 | 0.00 | 62 | 19.8 |
| 20260904081013 | 74 | 225 | 1.0 | 4.0 | 0.00 | 0.00 | 0.00 | 62 | 19.7 |
| 20260904080013 | 72 | 180 | 1.0 | 3.0 | 0.00 | 0.00 | 0.00 | 65 | 19.7 |
| 20260904075013 | 72 | 0 | 0.0 | 0.0 | 0.00 | 0.00 | 0.00 | 66 | 19.7 |
| 20260904073013 | 68 | 225 | 0.0 | 3.0 | 0.00 | 0.00 | 0.00 | 72 | 19.8 |
| 20260904072013 | 68 | 225 | 0.0 | 3.0 | 0.00 | 0.00 | 0.00 | 74 | 19.8 |
| 20260904071013 | 66 | 225 | 1.0 | 4.0 | 0.00 | 0.00 | 0.00 | 77 | 19.8 |
| 20260904070013 | 66 | 0 | 0.0 | 0.0 | 0.00 | 0.00 | 0.00 | 79 | 19.7 |
| 20260904064013 | 64 | 225 | 0.0 | 2.0 | 0.00 | 0.00 | 0.00 | 83 | 19.9 |
| 20260904063012 | 62 | 0 | 0.0 | 2.0 | 0.00 | 0.00 | 0.00 | 87 | 19.9 |
| 20260904062013 | 61 | 0 | 0.0 | 0.0 | 0.00 | 0.00 | 0.00 | 90 | 19.8 |
| 20260904061012 | 59 | 0 | 0.0 | 0.0 | 0.00 | 0.00 | 0.00 | 93 | 19.7 |
| 20260904060013 | 58 | 0 | 0.0 | 0.0 | 0.00 | 0.00 | 0.00 | 93 | 19.8 |
| 20260904055012 | 57 | 0 | 0.0 | 0.0 | 0.00 | 0.00 | 0.00 | 93 | 19.9 |
| 20260904054012 | 56 | 0 | 0.0 | 0.0 | 0.00 | 0.00 | 0.00 | 93 | 19.9 |
| 20260904053012 | 56 | 0 | 0.0 | 0.0 | 0.00 | 0.00 | 0.00 | 94 | 19.9 |
| 20260904052012 | 56 | 0 | 0.0 | 0.0 | 0.00 | 0.00 | 0.00 | 94 | 20.0 |
| 20260904050013 | 56 | 0 | 0.0 | 0.0 | 0.00 | 0.00 | 0.00 | 94 | 19.9 |
| 20260904045012 | 55 | 0 | 0.0 | 0.0 | 0.00 | 0.00 | 0.00 | 95 | 19.9 |
| 20260904044013 | 55 | 0 | 0.0 | 0.0 | 0.00 | 0.00 | 0.00 | 94 | 19.9 |
| 20260904043012 | 55 | 0 | 0.0 | 0.0 | 0.00 | 0.00 | 0.00 | 93 | 20.1 |
| 20260904042012 | 55 | 0 | 0.0 | 0.0 | 0.00 | 0.00 | 0.00 | 94 | 20.1 |
| 20260904041012 | 55 | 0 | 0.0 | 0.0 | 0.00 | 0.00 | 0.00 | 93 | 20.2 |
| 20260904040013 | 56 | 0 | 0.0 | 0.0 | 0.00 | 0.00 | 0.00 | 93 | 20.2 |
| 20260904033012 | 56 | 0 | 0.0 | 0.0 | 0.00 | 0.00 | 0.00 | 92 | 20.5 |
| 20260904032012 | 56 | 0 | 0.0 | 0.0 | 0.00 | 0.00 | 0.00 | 91 | 20.6 |
| 20260904031012 | 57 | 0 | 0.0 | 0.0 | 0.00 | 0.00 | 0.00 | 90 | 20.6 |
| 20260904030013 | 57 | 0 | 0.0 | 0.0 | 0.00 | 0.00 | 0.00 | 90 | 20.7 |
| 20260904023012 | 57 | 0 | 0.0 | 0.0 | 0.00 | 0.00 | 0.00 | 90 | 20.9 |
| 20260904022013 | 58 | 0 | 0.0 | 0.0 | 0.00 | 0.00 | 0.00 | 89 | 21.0 |
| 20260904021013 | 58 | 0 | 0.0 | 0.0 | 0.00 | 0.00 | 0.00 | 88 | 21.0 |
| 20260904020013 | 58 | 0 | 0.0 | 0.0 | 0.00 | 0.00 | 0.00 | 88 | 21.1 |
| 20260904015012 | 58 | 0 | 0.0 | 0.0 | 0.00 | 0.00 | 0.00 | 88 | 21.1 |
| 20260904014012 | 59 | 0 | 0.0 | 0.0 | 0.00 | 0.00 | 0.00 | 88 | 21.2 |
| 20260904012012 | 59 | 0 | 0.0 | 0.0 | 0.00 | 0.00 | 0.00 | 87 | 21.3 |
| 20260904011012 | 59 | 0 | 0.0 | 0.0 | 0.00 | 0.00 | 0.00 | 87 | 21.4 |
| 20260904005012 | 58 | 0 | 0.0 | 0.0 | 0.00 | 0.00 | 0.00 | 87 | 21.5 |
| 20260904004013 | 59 | 0 | 0.0 | 0.0 | 0.00 | 0.00 | 0.00 | 86 | 21.6 |
| 20260904003012 | 60 | 0 | 0.0 | 0.0 | 0.00 | 0.00 | 0.00 | 86 | 21.6 |
| 20260904002012 | 60 | 0 | 0.0 | 0.0 | 0.00 | 0.00 | 0.00 | 85 | 21.8 |
| 20260904001012 | 60 | 0 | 0.0 | 0.0 | 0.00 | 0.00 | 0.00 | 84 | 21.8 |
| 20260904000013 | 61 | 0 | 0.0 | 0.0 | 0.00 | 0.00 | 0.00 | 84 | 21.8 |
| 20260903235012 | 59 | 0 | 0.0 | 0.0 | 0.00 | 0.00 | 0.00 | 86 | 21.8 |
| 20260903234012 | 60 | 0 | 0.0 | 0.0 | 0.00 | 0.00 | 0.00 | 84 | 21.9 |
| 20260903233012 | 61 | 0 | 0.0 | 0.0 | 0.00 | 0.00 | 0.00 | 84 | 21.9 |
| 20260903232012 | 62 | 0 | 0.0 | 0.0 | 0.00 | 0.00 | 0.00 | 82 | 21.8 |
| 20260903231012 | 61 | 0 | 0.0 | 0.0 | 0.00 | 0.00 | 0.00 | 83 | 21.8 |
| 20260903230013 | 61 | 0 | 0.0 | 0.0 | 0.00 | 0.00 | 0.00 | 84 | 21.8 |
| 20260903225012 | 61 | 0 | 0.0 | 0.0 | 0.00 | 0.00 | 0.00 | 82 | 21.9 |
| 20260903224012 | 63 | 0 | 0.0 | 0.0 | 0.00 | 0.00 | 0.00 | 79 | 22.1 |
| 20260903223012 | 62 | 0 | 0.0 | 0.0 | 0.00 | 0.00 | 0.00 | 80 | 22.1 |
| 20260903222012 | 63 | 0 | 0.0 | 0.0 | 0.00 | 0.00 | 0.00 | 79 | 22.0 |
| 20260903220012 | 64 | 0 | 0.0 | 0.0 | 0.00 | 0.00 | 0.00 | 78 | 22.0 |
| 20260903214012 | 64 | 0 | 0.0 | 0.0 | 0.00 | 0.00 | 0.00 | 77 | 22.1 |
| 20260903213012 | 64 | 0 | 0.0 | 0.0 | 0.00 | 0.00 | 0.00 | 77 | 22.1 |
| 20260903212012 | 65 | 0 | 0.0 | 0.0 | 0.00 | 0.00 | 0.00 | 75 | 22.1 |
| 20260903211012 | 65 | 0 | 0.0 | 0.0 | 0.00 | 0.00 | 0.00 | 74 | 22.1 |
| 20260903205012 | 65 | 0 | 0.0 | 0.0 | 0.00 | 0.00 | 0.00 | 74 | 22.1 |
| 20260903204012 | 65 | 0 | 0.0 | 0.0 | 0.00 | 0.00 | 0.00 | 73 | 22.1 |
| 20260903203012 | 67 | 0 | 0.0 | 0.0 | 0.00 | 0.00 | 0.00 | 71 | 22.1 |
| 20260903202014 | 67 | 0 | 0.0 | 0.0 | 0.00 | 0.00 | 0.00 | 72 | 22.0 |
| 20260903201012 | 67 | 0 | 0.0 | 0.0 | 0.00 | 0.00 | 0.00 | 70 | 22.0 |
| 20260903200021 | 67 | 0 | 0.0 | 0.0 | 0.00 | 0.00 | 0.00 | 70 | 21.9 |
| 20260903195012 | 68 | 0 | 0.0 | 0.0 | 0.00 | 0.00 | 0.00 | 68 | 21.9 |
| 20260903194012 | 69 | 0 | 0.0 | 0.0 | 0.00 | 0.00 | 0.00 | 67 | 22.0 |
| 20260903193012 | 69 | 0 | 0.0 | 0.0 | 0.00 | 0.00 | 0.00 | 67 | 21.8 |
| 20260903191012 | 70 | 0 | 0.0 | 0.0 | 0.00 | 0.00 | 0.00 | 65 | 21.7 |
| 20260903190013 | 70 | 0 | 0.0 | 0.0 | 0.00 | 0.00 | 0.00 | 64 | 21.6 |
| 20260903185012 | 71 | 0 | 0.0 | 0.0 | 0.00 | 0.00 | 0.00 | 63 | 21.5 |
| 20260903184013 | 73 | 0 | 0.0 | 0.0 | 0.00 | 0.00 | 0.00 | 59 | 21.4 |
| 20260903182012 | 75 | 0 | 0.0 | 0.0 | 0.00 | 0.00 | 0.00 | 55 | 21.3 |
| 20260903180012 | 79 | 225 | 0.0 | 2.0 | 0.00 | 0.00 | 0.00 | 46 | 21.3 |
| 20260903175012 | 81 | 225 | 0.0 | 2.0 | 0.00 | 0.00 | 0.00 | 45 | 21.3 |
| 20260903174012 | 82 | 225 | 1.0 | 4.0 | 0.00 | 0.00 | 0.00 | 44 | 21.3 |
| 20260903173012 | 82 | 225 | 1.0 | 3.0 | 0.00 | 0.00 | 0.00 | 43 | 21.3 |
| 20260903172012 | 83 | 270 | 0.0 | 3.0 | 0.00 | 0.00 | 0.00 | 43 | 21.3 |
| 20260903171012 | 83 | 247 | 1.0 | 3.0 | 0.00 | 0.00 | 0.00 | 43 | 21.3 |
| 20260903170012 | 84 | 270 | 0.0 | 2.0 | 0.00 | 0.00 | 0.00 | 42 | 21.4 |
| 20260903165012 | 84 | 270 | 1.0 | 4.0 | 0.00 | 0.00 | 0.00 | 41 | 21.5 |
| 20260903164012 | 84 | 270 | 2.0 | 7.0 | 0.00 | 0.00 | 0.00 | 41 | 21.4 |
| 20260903163013 | 84 | 270 | 3.0 | 7.0 | 0.00 | 0.00 | 0.00 | 41 | 21.5 |
| 20260903162012 | 84 | 292 | 1.0 | 4.0 | 0.00 | 0.00 | 0.00 | 41 | 21.5 |
| 20260903161012 | 85 | 247 | 3.0 | 9.0 | 0.00 | 0.00 | 0.00 | 40 | 21.6 |
| 20260903160012 | 85 | 247 | 1.0 | 4.0 | 0.00 | 0.00 | 0.00 | 39 | 21.6 |
| 20260903155012 | 85 | 270 | 2.0 | 8.0 | 0.00 | 0.00 | 0.00 | 39 | 21.7 |
| 20260903153012 | 84 | 225 | 4.0 | 9.0 | 0.00 | 0.00 | 0.00 | 42 | 21.7 |
| 20260903152012 | 84 | 225 | 2.0 | 8.0 | 0.00 | 0.00 | 0.00 | 42 | 21.8 |
| 20260903151012 | 84 | 247 | 1.0 | 5.0 | 0.00 | 0.00 | 0.00 | 41 | 21.8 |
| 20260903150012 | 84 | 225 | 5.0 | 9.0 | 0.00 | 0.00 | 0.00 | 42 | 21.9 |
| 20260903145012 | 84 | 225 | 4.0 | 11.0 | 0.00 | 0.00 | 0.00 | 41 | 21.9 |
| 20260903144012 | 85 | 270 | 4.0 | 10.0 | 0.00 | 0.00 | 0.00 | 39 | 21.8 |
| 20260903142012 | 86 | 315 | 3.0 | 14.0 | 0.00 | 0.00 | 0.00 | 38 | 21.9 |
| 20260903134012 | 86 | 270 | 4.0 | 9.0 | 0.00 | 0.00 | 0.00 | 38 | 22.2 |